Willimantic, CT

11:57 AM EST on December 07, 2019 (GMT -0500)
Windham

Weather History for KIJD - October, 2019

Change the Weather History Date:

Friday, October 18, 2019

  Actual Average Record
Temperature  
Mean Temperature 52 °F -  
Max Temperature 57 °F 60 °F 82 °F (2016)
Min Temperature 43 °F 36 °F 20 °F (1978)
Degree Days  
Heating Degree Days 14    
Growing Degree Days 2 (Base 50)    
Moisture  
Dew Point 39 °F    
Average Humidity 63    
Maximum Humidity 82    
Minimum Humidity 49    
Precipitation  
Precipitation 0.00 in - - ()
Sea Level Pressure  
Sea Level Pressure 29.76 in    
Wind  
Wind Speed 9 mph ()    
Max Wind Speed 16 mph    
Max Gust Speed 26 mph    
Visibility 10.0 miles    
Events      
Averages and records for this station are not official NWS values.
T = Trace of Precipitation, MM = Missing Value Source: Averaged Metar Reports

Daily Weather History Graph

Daily Weather History Graph

Search for Another Location

Airport or City:

Astronomy

Oct. 18, 2019 Rise Set
Actual Time 7:04 AM EDT 6:03 PM EDT
Civil Twilight 6:35 AM EDT 6:31 PM EDT
Nautical Twilight 6:03 AM EDT 7:03 PM EDT
Astronomical Twilight 5:31 AM EDT 7:35 PM EDT
Moon 9:14 PM EDT (10/18) 11:37 AM EDT (10/18)
Length of Visible Light 11h 55m
Length of Day
10h 59m
Waning Gibbous, 79% of the Moon is Illuminated
Oct 18
Waning Gibbous
Oct 21
Last Quarter
Oct 27
New
Nov 4
First Quarter
Nov 12
Full

Hourly Weather History & Observations

Time (EDT) Temp. Windchill Dew Point Humidity Pressure Visibility Wind Dir Wind Speed Gust Speed Precip Events Conditions
12:52 AM 52.0 °F - 41.0 °F 66% 29.52 in 10.0 mi West 13.8 mph 19.6 mph N/A   Overcast
1:52 AM 51.1 °F - 39.9 °F 66% 29.55 in 10.0 mi WNW 10.4 mph 21.9 mph N/A   Mostly Cloudy
2:52 AM 50.0 °F - 39.9 °F 68% 29.56 in 10.0 mi Variable 4.6 mph 17.3 mph N/A   Clear
3:52 AM 51.1 °F - 39.9 °F 66% 29.58 in 10.0 mi WNW 10.4 mph - N/A   Overcast
4:52 AM 50.0 °F - 39.9 °F 68% 29.60 in 10.0 mi WNW 6.9 mph - N/A   Scattered Clouds
5:52 AM 48.9 °F - 39.0 °F 69% 29.64 in 10.0 mi Variable 5.8 mph - N/A   Overcast
6:52 AM 48.9 °F - 39.0 °F 69% 29.67 in 10.0 mi WNW 9.2 mph - N/A   Overcast
7:52 AM 48.9 °F - 39.0 °F 69% 29.70 in 10.0 mi WNW 9.2 mph - N/A   Overcast
8:52 AM 50.0 °F - 39.0 °F 66% 29.73 in 10.0 mi Variable 5.8 mph - N/A   Overcast
9:52 AM 52.0 °F - 37.9 °F 59% 29.76 in 10.0 mi NW 15.0 mph 26.5 mph N/A   Overcast
10:52 AM 53.1 °F - 39.0 °F 59% 29.77 in 10.0 mi NNW 10.4 mph 19.6 mph N/A   Overcast
11:52 AM 54.0 °F - 37.9 °F 55% 29.78 in 10.0 mi WNW 13.8 mph 21.9 mph N/A   Mostly Cloudy
12:52 PM 57.0 °F - 39.0 °F 51% 29.76 in 10.0 mi West 13.8 mph 21.9 mph N/A   Clear
1:52 PM 57.9 °F - 39.0 °F 49% 29.77 in 10.0 mi NNW 16.1 mph 23.0 mph N/A   Clear
2:52 PM 57.0 °F - 39.0 °F 51% 29.80 in 10.0 mi NW 13.8 mph 24.2 mph N/A   Scattered Clouds
3:52 PM 55.0 °F - 39.0 °F 55% 29.82 in 10.0 mi WNW 9.2 mph 20.7 mph N/A   Mostly Cloudy
4:52 PM 53.1 °F - 37.9 °F 57% 29.85 in 10.0 mi NW 10.4 mph 21.9 mph N/A   Overcast
5:52 PM 52.0 °F - 37.9 °F 59% 29.87 in 10.0 mi NW 11.5 mph - N/A   Overcast
6:52 PM 51.1 °F - 37.9 °F 61% 29.88 in 10.0 mi NW 10.4 mph - N/A   Overcast
7:52 PM 50.0 °F - 37.9 °F 63% 29.91 in 10.0 mi WNW 4.6 mph - N/A   Overcast
8:52 PM 48.0 °F - 37.0 °F 66% 29.94 in 10.0 mi WNW 5.8 mph - N/A   Scattered Clouds
9:52 PM 46.9 °F - 37.0 °F 68% 29.95 in 10.0 mi WNW 5.8 mph - N/A   Partly Cloudy
10:52 PM 46.0 °F 43.1 °F 37.9 °F 73% 29.96 in 10.0 mi West 5.8 mph - N/A   Scattered Clouds
11:52 PM 43.0 °F 41.3 °F 37.9 °F 82% 29.96 in 10.0 mi NNW 3.5 mph - N/A   Scattered Clouds